Location: Overspoor
(51.4747°N, 5.6641°E)
Time: 22:30:22
(UTC+02:00)

X-37B - Pass Details

Date: 29 January 2022
Orbit: 328 x 343 km, 45.0° (Epoch: 15 May)

Event Time Altitude Azimuth Distance (km) Brightness Sun altitude
Rises 19:15:17 0° 228° (SW) 2,109 5.2 -17.6°
Reaches altitude 10° 19:17:46 10° 205° (SSW) 1,270 3.6 -18.0°
Enters shadow 19:19:14 16° 174° (S) 1,001 2.6 -18.2°
